Date,TemperatureHighF,TemperatureAvgF,TemperatureLowF,DewpointHighF,DewpointAvgF,DewpointLowF,HumidityHigh,HumidityAvg,HumidityLow,PressureMaxIn,PressureMinIn,WindSpeedMaxMPH,WindSpeedAvgMPH,GustSpeedMaxMPH,PrecipitationSumIn
2013-11-1,60,49,45,59,44,40,97,84,72,29.59,29.02,26,6,26,0.01
2013-11-2,46,43,35,44,41,32,97,93,83,30.04,29.57,11,2,11,0.22
2013-11-3,43,36,30,36,32,29,98,87,67,30.40,30.03,6,0,6,0.00
2013-11-4,48,40,30,37,32,28,96,76,47,30.43,30.26,9,1,10,0.00
2013-11-5,52,48,41,48,43,36,92,84,75,30.30,30.10,9,1,9,0.00
2013-11-6,55,51,42,52,47,38,95,85,68,30.11,29.72,20,4,20,0.17
2013-11-7,44,39,33,38,31,25,95,76,51,30.07,29.90,17,3,17,0.03
2013-11-8,44,35,30,33,29,26,95,78,51,30.23,30.05,9,2,10,0.00
2013-11-9,56,46,35,42,36,29,84,68,56,30.13,29.74,23,5,23,0.00
2013-11-10,47,42,35,40,32,29,86,66,55,30.20,29.83,20,4,20,0.00
2013-11-11,41,35,27,38,31,20,95,84,74,30.25,29.96,14,3,15,0.13
2013-11-12,33,27,22,22,19,16,84,71,52,30.50,30.25,16,3,16,0.00
2013-11-13,40,30,20,24,18,10,88,64,30,30.50,30.11,18,4,18,0.00
2013-11-14,49,38,28,28,22,18,70,53,41,30.12,29.93,12,5,19,0.00
2013-11-15,50,42,35,32,28,24,73,57,44,30.01,29.93,13,3,13,0.00
2013-11-16,56,45,34,53,41,31,92,86,72,30.05,29.74,18,3,18,0.00
2013-11-17,62,57,47,59,54,40,96,90,70,29.74,29.15,38,7,39,0.62
2013-11-18,47,40,34,41,31,23,82,71,64,30.06,29.37,33,8,33,0.00
2013-11-19,41,34,27,26,23,21,88,66,47,30.36,30.06,16,2,16,0.00
2013-11-20,46,35,25,33,27,22,95,74,41,30.40,30.19,12,2,15,0.00
2013-11-21,47,43,38,43,38,28,98,83,69,30.24,30.11,20,2,20,0.26
2013-11-22,44,39,27,44,37,24,98,92,81,30.30,30.06,12,2,19,0.06
2013-11-23,28,23,16,25,17,9,92,76,51,30.47,30.21,16,4,22,0.00
2013-11-24,24,18,13,14,10,8,85,73,52,30.56,30.39,16,3,18,0.00
2013-11-25,30,24,18,25,16,10,86,71,56,30.39,30.05,18,5,19,0.00
2013-11-26,33,30,28,28,27,24,91,86,80,30.07,29.88,12,2,12,0.00
2013-11-27,28,23,18,24,14,10,89,71,56,30.15,29.86,19,4,19,0.00
2013-11-28,27,22,16,21,16,11,90,79,65,30.39,30.15,10,1,10,0.00
2013-11-29,33,23,14,24,18,12,95,81,58,30.63,30.39,6,0,6,0.00
2013-11-30,44,33,25,30,26,21,86,75,56,30.52,30.05,13,2,13,0.00